Westminster, MD

9:47 PM EDT on August 27, 2016 (GMT -0400)
Carroll County Regional-Poage

Weather History for KDMW - October, 2013

Change the Weather History Date:

Sunday, October 6, 2013

  Actual Average (KTHV) Record (KTHV)
Temperature  
Mean Temperature 76 °F -  
Max Temperature 87 °F 0 °F 87 °F (2013)
Min Temperature 66 °F - 32 °F (1999)
Cooling Degree Days 12    
Growing Degree Days 26 (Base 50)    
Moisture  
Dew Point 66 °F    
Average Humidity 75    
Maximum Humidity 100    
Minimum Humidity 40    
Precipitation  
Precipitation 0.00 in - - ()
Sea Level Pressure  
Sea Level Pressure 30.01 in    
Wind  
Wind Speed 5 mph (SSE)    
Max Wind Speed 20 mph    
Max Gust Speed 25 mph    
Visibility 8 miles    
Events Fog    
Averages and records for this station are not official NWS values.
T = Trace of Precipitation, MM = Missing Value Source: NWS Daily Summary

Daily Weather History Graph

Daily Weather History Graph

Search for Another Location

Airport or City:

Trip Planner

Search our weather history database for the weather conditions in past years. The results will help you decide how hot, cold, wet, or windy it might be!

Date:

Astronomy

Oct. 06, 2013 Rise Set
Actual Time 7:09 AM EDT 6:42 PM EDT
Civil Twilight 6:42 AM EDT 7:09 PM EDT
Nautical Twilight 6:11 AM EDT 7:40 PM EDT
Astronomical Twilight 5:39 AM EDT 8:11 PM EDT
Moon 8:50 AM EDT (10/6) 7:40 PM EDT (10/6)
Length of Visible Light 12h 26m
Length of Day
11h 32m
Waxing Crescent, 3% of the Moon is Illuminated
Oct 6
Waxing Crescent
Oct 11
First Quarter
Oct 18
Full
Oct 26
Last Quarter
Nov 3
New

Hourly Weather History & Observations

Time (EDT) Temp. Heat Index Dew Point Humidity Pressure Visibility Wind Dir Wind Speed Gust Speed Precip Events Conditions
12:00 AM 73.4 °F - 66.2 °F 78% 30.06 in 10.0 mi Calm Calm - N/A   Clear
12:20 AM 73.4 °F - 66.2 °F 78% 30.06 in 10.0 mi Calm Calm - N/A   Clear
12:40 AM 73.4 °F - 66.2 °F 78% 30.05 in 10.0 mi Calm Calm - N/A   Clear
1:00 AM 73.4 °F - 66.2 °F 78% 30.05 in 10.0 mi SSE 4.6 mph - N/A   Clear
1:20 AM 73.4 °F - 66.2 °F 78% 30.04 in 10.0 mi SSE 4.6 mph - N/A   Clear
1:40 AM 73.4 °F - 66.2 °F 78% 30.04 in 10.0 mi SSE 3.5 mph - N/A   Clear
2:00 AM 71.6 °F - 66.2 °F 83% 30.04 in 10.0 mi Calm Calm - N/A   Clear
2:20 AM 71.6 °F - 66.2 °F 83% 30.04 in 10.0 mi SE 4.6 mph - N/A   Clear
2:40 AM 69.8 °F - 64.4 °F 83% 30.04 in 10.0 mi SE 3.5 mph - N/A   Clear
3:00 AM 69.8 °F - 64.4 °F 83% 30.04 in 10.0 mi SE 3.5 mph - N/A   Clear
3:20 AM 69.8 °F - 64.4 °F 83% 30.03 in 10.0 mi Calm Calm - N/A   Clear
3:40 AM 69.8 °F - 64.4 °F 83% 30.02 in 10.0 mi Calm Calm - N/A   Clear
4:00 AM 69.8 °F - 64.4 °F 83% 30.02 in 10.0 mi SE 5.8 mph - N/A   Clear
4:20 AM 68.0 °F - 66.2 °F 94% 30.02 in 7.0 mi SE 4.6 mph - N/A   Clear
4:40 AM 68.0 °F - 64.4 °F 88% 30.02 in 7.0 mi SE 5.8 mph - N/A   Clear
5:00 AM 68.0 °F - 64.4 °F 88% 30.02 in 7.0 mi SE 3.5 mph - N/A   Clear
5:20 AM 66.2 °F - 64.4 °F 94% 30.03 in 7.0 mi SE 4.6 mph - N/A   Clear
5:35 AM 66.2 °F - 64.4 °F 94% 30.03 in 5.0 mi SE 3.5 mph - N/A   Clear
6:00 AM 66.2 °F - 64.4 °F 94% 30.03 in 5.0 mi SE 4.6 mph - N/A   Clear
6:20 AM 66.2 °F - 64.4 °F 94% 30.04 in 4.0 mi SE 3.5 mph - N/A   Clear
6:40 AM 66.2 °F - 64.4 °F 94% 30.04 in 4.0 mi SE 3.5 mph - N/A   Clear
7:00 AM 66.2 °F - 64.4 °F 94% 30.04 in 3.0 mi SE 5.8 mph - N/A   Scattered Clouds
7:20 AM 66.2 °F - 64.4 °F 94% 30.04 in 0.2 mi SE 6.9 mph - N/A Fog Fog
7:40 AM 66.2 °F - 64.4 °F 94% 30.04 in 0.2 mi SE 8.1 mph - N/A Fog Fog
8:00 AM 66.2 °F - 64.4 °F 94% 30.05 in 0.2 mi SE 6.9 mph - N/A Fog Fog
8:20 AM 66.2 °F - 64.4 °F 94% 30.05 in 0.2 mi SE 6.9 mph - N/A Fog Fog
8:40 AM 66.2 °F - 64.4 °F 94% 30.06 in 0.2 mi SE 6.9 mph - N/A Fog Fog
9:00 AM 66.2 °F - 64.4 °F 94% 30.06 in 0.2 mi SE 5.8 mph - N/A Fog Fog
9:15 AM 66.2 °F - 64.4 °F 94% 30.06 in 0.8 mi SE 3.5 mph - N/A   Overcast
9:40 AM 66.2 °F - 66.2 °F 100% 30.06 in 2.5 mi SE 3.5 mph - N/A   Overcast
10:00 AM 69.8 °F - 68.0 °F 94% 30.06 in 4.0 mi SE 4.6 mph - N/A   Mostly Cloudy
10:20 AM 71.6 °F - 66.2 °F 83% 30.06 in 5.0 mi SE 5.8 mph - N/A   Clear
10:40 AM 73.4 °F - 69.8 °F 88% 30.06 in 7.0 mi SSE 5.8 mph - N/A   Clear
11:00 AM 73.4 °F - 69.8 °F 88% 30.05 in 7.0 mi SE 6.9 mph - N/A   Clear
11:20 AM 75.2 °F - 69.8 °F 83% 30.04 in 7.0 mi SE 3.5 mph - N/A   Clear
11:40 AM 78.8 °F - 69.8 °F 74% 30.04 in 7.0 mi SE 5.8 mph - N/A   Clear
12:00 PM 80.6 °F 83.9 °F 69.8 °F 70% 30.03 in 10.0 mi SSE 6.9 mph - N/A   Clear
12:20 PM 82.4 °F 86.3 °F 69.8 °F 66% 30.03 in 10.0 mi South 6.9 mph - N/A   Clear
12:40 PM 84.2 °F 88.4 °F 69.8 °F 62% 30.02 in 10.0 mi South 8.1 mph - N/A   Clear
1:00 PM 84.2 °F 88.4 °F 69.8 °F 62% 30.01 in 10.0 mi SSW 11.5 mph - N/A   Clear
1:20 PM 84.2 °F 90.9 °F 73.4 °F 70% 30.00 in 10.0 mi South 11.5 mph 16.1 mph N/A   Scattered Clouds
1:40 PM 87.8 °F 92.6 °F 69.8 °F 55% 30.00 in 10.0 mi South 15.0 mph 20.7 mph N/A   Scattered Clouds
2:00 PM 87.8 °F 92.6 °F 69.8 °F 55% 29.98 in 10.0 mi South 11.5 mph 18.4 mph N/A   Scattered Clouds
2:20 PM 87.8 °F 89.4 °F 64.4 °F 46% 29.97 in 10.0 mi South 19.6 mph 25.3 mph N/A   Scattered Clouds
2:40 PM 87.8 °F 88.5 °F 62.6 °F 43% 29.97 in 10.0 mi SSW 18.4 mph 25.3 mph N/A   Scattered Clouds
3:00 PM 87.8 °F 88.5 °F 62.6 °F 43% 29.97 in 10.0 mi South 10.4 mph 18.4 mph N/A   Scattered Clouds
3:20 PM 87.8 °F 88.5 °F 62.6 °F 43% 29.97 in 10.0 mi SSW 15.0 mph 19.6 mph N/A   Scattered Clouds
3:40 PM 87.8 °F 87.6 °F 60.8 °F 40% 29.96 in 10.0 mi SSE 12.7 mph 21.9 mph N/A   Scattered Clouds
4:00 PM 87.8 °F 88.5 °F 62.6 °F 43% 29.96 in 10.0 mi South 16.1 mph 21.9 mph N/A   Scattered Clouds
4:20 PM 87.8 °F 87.6 °F 60.8 °F 40% 29.95 in 10.0 mi SSE 18.4 mph 23.0 mph N/A   Scattered Clouds
4:40 PM 86.0 °F 86.1 °F 60.8 °F 43% 29.95 in 10.0 mi South 13.8 mph 19.6 mph N/A   Scattered Clouds
5:00 PM 86.0 °F 86.1 °F 60.8 °F 43% 29.95 in 10.0 mi South 12.7 mph 19.6 mph N/A   Scattered Clouds
5:20 PM 84.2 °F 84.4 °F 60.8 °F 45% 29.95 in 10.0 mi South 12.7 mph 19.6 mph N/A   Scattered Clouds
5:40 PM 84.2 °F 85.0 °F 62.6 °F 48% 29.95 in 10.0 mi South 9.2 mph - N/A   Clear
6:00 PM 82.4 °F 83.4 °F 62.6 °F 51% 29.96 in 10.0 mi South 11.5 mph - N/A   Clear
6:20 PM 82.4 °F 83.9 °F 64.4 °F 54% 29.96 in 10.0 mi South 8.1 mph - N/A   Clear
6:40 PM 80.6 °F 81.5 °F 60.8 °F 51% 29.96 in 10.0 mi South 9.2 mph - N/A   Scattered Clouds
7:00 PM 80.6 °F 82.3 °F 64.4 °F 58% 29.96 in 10.0 mi SSE 9.2 mph - N/A   Scattered Clouds
7:20 PM 78.8 °F - 66.2 °F 65% 29.97 in 10.0 mi SSE 8.1 mph - N/A   Scattered Clouds
7:40 PM 77.0 °F - 66.2 °F 69% 29.97 in 10.0 mi SSE 9.2 mph - N/A   Scattered Clouds
8:00 PM 75.2 °F - 66.2 °F 73% 29.97 in 10.0 mi SE 9.2 mph - N/A   Clear
8:20 PM 75.2 °F - 66.2 °F 73% 29.97 in 10.0 mi SSE 11.5 mph - N/A   Clear
8:40 PM 75.2 °F - 66.2 °F 73% 29.97 in 10.0 mi SSE 8.1 mph - N/A   Clear
9:00 PM 75.2 °F - 68.0 °F 78% 29.96 in 10.0 mi SSE 8.1 mph - N/A   Clear
9:20 PM 73.4 °F - 68.0 °F 83% 29.96 in 10.0 mi SE 11.5 mph 16.1 mph N/A   Clear
9:40 PM 73.4 °F - 66.2 °F 78% 29.96 in 10.0 mi SSE 9.2 mph 17.3 mph N/A   Clear
10:00 PM 73.4 °F - 66.2 °F 78% 29.96 in 10.0 mi SSE 11.5 mph 16.1 mph N/A   Clear
10:20 PM 71.6 °F - 66.2 °F 83% 29.97 in 10.0 mi SSE 8.1 mph - N/A   Clear
10:40 PM 71.6 °F - 66.2 °F 83% 29.97 in 10.0 mi SSE 10.4 mph - N/A   Clear
11:00 PM 71.6 °F - 66.2 °F 83% 29.96 in 10.0 mi SSE 9.2 mph - N/A   Clear
11:20 PM 71.6 °F - 66.2 °F 83% 29.96 in 10.0 mi SSE 9.2 mph 16.1 mph N/A   Scattered Clouds
11:40 PM 71.6 °F - 66.2 °F 83% 29.96 in 10.0 mi SSE 10.4 mph - N/A   Scattered Clouds